CAPE
0 0 0 0 0 0 0 0 0 0 0 6 0 0 0 0 0 0 0 0 0 0 0 170 543 820 737 752 652 415 526 560 364 60 351 330 135 101 73 0 0 0 0 0
0 0 0 0 0 0 0 0 0 0 0 6 0 0 0 0 0 0 0 0 0 0 0 0 408 604 601 459 515 365 398 483 263 24 23 165 142 97 48 0 0 0 0 0
0 0 0 0 0 0 0 0 0 0 1 7 3 6 0 0 0 0 0 0 0 0 0 0 114 434 504 331 266 286 273 171 279 74 71 23 88 76 22 7 0 0 0 0
0 11 0 0 0 0 0 0 1 0 0 5 9 0 0 0 0 0 0 0 0 0 0 0 17 223 332 372 291 169 106 107 240 41 3 1 355 209 11 164 2 0 0 0
0 0 0 0 0 0 0 0 0 0 0 0 31 0 0 0 0 0 0 0 0 0 0 0 0 102 245 321 268 149 69 183 18 12 9 3 8 11 20 12 1 0 0 0
0 0 0 0 10 0 0 0 0 0 0 0 0 0 0 0 1 0 0 0 0 0 0 0 0 91 167 241 232 157 65 71 101 128 23 40 18 9 31 10 16 1 0 0
0 0 10 0 1 3 16 4 0 0 0 0 0 0 0 0 3 0 0 0 0 0 0 0 5 168 134 155 179 174 64 102 65 100 60 4 59 39 55 6 42 16 0 0
0 0 0 0 2 0 5 0 0 0 0 0 18 0 0 0 0 1 0 0 0 0 0 0 0 199 154 148 180 208 175 43 153 18 70 31 34 50 47 8 15 1 7 0
0 0 0 0 0 1 3 0 0 3 0 0 0 0 0 0 1 0 0 7 9 0 0 0 1 189 135 204 194 147 172 28 3 88 75 7 16 12 26 44 20 24 0 0
0 0 0 0 0 0 1 0 0 3 0 0 0 0 0 0 0 1 0 1 0 0 0 0 1 152 219 233 302 290 167 41 3 67 45 62 5 32 47 54 26 0 0 0
0 0 2 0 0 0 1 0 0 1 3 0 0 0 3 0 0 0 2 3 0 0 0 0 0 287 337 296 348 293 123 92 32 86 143 44 37 26 15 31 24 19 3 6
0 0 0 0 0 0 0 0 0 0 0 12 12 32 0 0 8 39 20 5 0 0 1 1 0 361 345 286 290 312 146 115 40 139 90 13 70 36 12 2 62 4 10 0
0 0 0 0 0 0 0 0 0 0 0 0 15 55 38 6 44 22 0 0 1 0 0 0 0 375 393 341 276 266 236 137 59 167 96 39 51 31 25 20 36 14 0 0
0 0 0 0 0 0 0 0 0 0 0 8 0 66 108 35 40 23 12 2 5 2 1 0 3 299 336 280 273 215 223 169 165 74 34 27 17 35 59 48 23 49 11 6
0 0 0 0 0 0 0 0 0 1 0 3 1 38 113 39 42 5 22 7 19 19 4 0 0 55 271 230 247 173 115 99 110 52 21 7 6 35 49 67 54 37 10 6
0 0 0 0 0 0 0 0 0 0 0 0 1 4 54 13 14 21 0 0 25 11 28 23 22 26 20 125 221 146 376 46 91 43 4 31 18 7 37 62 56 22 6 0
0 0 0 0 0 0 0 0 0 0 0 0 0 0 0 0 0 0 0 0 1 1 12 16 19 21 33 16 183 118 164 102 62 67 40 39 30 0 25 56 26 14 11 1
0 0 0 0 0 0 0 0 0 0 1 0 0 0 0 0 0 0 0 1 0 1 0 0 5 16 82 72 66 170 77 53 35 51 50 40 8 2 2 73 28 46 4 0
0 0 0 0 0 0 0 0 0 0 0 0 0 0 0 0 0 0 1 0 0 0 0 0 0 1 88 38 47 100 131 51 52 33 38 55 40 4 1 11 11 24 6 0
0 0 0 0 0 0 0 0 0 0 0 0 0 0 0 0 0 0 0 3 1 2 0 0 0 1 106 134 278 191 70 101 32 47 33 33 3 2 1 8 2 0 0 0
0 0 0 0 0 0 0 0 0 0 0 0 0 0 0 0 0 0 0 0 1 3 0 0 0 0 3 76 140 91 71 85 48 51 71 30 20 7 14 76 21 13 1 0
0 0 0 0 0 0 0 0 0 0 0 0 0 0 0 0 0 0 0 0 0 0 0 0 0 0 0 5 32 22 11 37 33 48 66 46 22 17 29 33 10 12 0 0
0 0 0 0 0 0 0 0 0 0 0 0 0 0 0 0 0 0 0 0 0 0 0 0 0 0 0 0 0 0 0 0 2 0 56 49 36 30 25 23 24 0 0 0
0 0 0 0 0 0 0 0 0 0 0 0 0 0 0 0 0 0 0 0 0 0 0 0 0 0 0 0 0 3 9 8 3 0 42 47 50 50 29 29 5 14 1 0
0 0 0 0 0 0 0 0 0 0 0 0 0 0 0 0 0 0 0 0 0 0 0 0 0 0 0 0 0 8 18 2 0 0 0 14 8 21 12 16 8 0 0 0
0 0 0 0 0 0 0 0 0 0 0 0 0 0 0 0 0 0 0 0 0 0 0 0 0 0 0 0 0 0 2 8 0 8 8 0 9 0 0 0 0 0 0 0
CIN
-0 -0 -0 -0 -0 -0 -0 -0 -0 -0 -0 -1 -0 -0 -0 -0 -0 -0 -0 -0 -0 -0 -0 -95 -52 -39 -42 -33 -13 -13 -2 -1 -6 -76 -18 -0 -47 -72 -90 -0 -0 -0 -0 -0
-0 -0 -0 -0 -0 -0 -0 -0 -0 -0 -0 -1 -0 -0 -0 -2 -0 -0 -0 -0 -0 -0 -0 -0 -36 -37 -38 -42 -14 -16 -10 -2 -18 -96 -52 -4 -5 -54 -68 -8 -0 -0 -0 -0
-0 -0 -0 -0 -0 -0 -0 -0 -0 -0 -3 -1 -1 -1 -0 -0 -0 -0 -0 -0 -0 -0 -0 -0 -46 -33 -35 -46 -43 -27 -33 -85 -13 -47 -71 -48 -21 -38 -115 -59 -0 -0 -0 -0
-0 -14 -0 -0 -0 -0 -0 -0 -0 -0 -0 -0 -1 -0 -0 -0 -0 -0 -0 -0 -0 -0 -0 -0 -39 -52 -48 -32 -40 -19 -56 -85 -1 -98 -0 -5 -0 -0 -8 -19 -3 -0 -0 -0
-0 -0 -0 -0 -0 -0 -0 -0 -0 -5 -0 -0 -3 -0 -0 -0 -0 -0 -0 -0 -0 -0 -0 -0 -0 -119 -74 -58 -48 -34 -5 -8 -2 -2 -0 -1 -4 -27 -17 -6 -2 -0 -0 -0
-0 -0 -0 -0 -0 -1 -0 -1 -0 -0 -0 -0 -1 -0 -0 -0 -1 -2 -0 -0 -0 -0 -0 -0 -0 -86 -82 -67 -66 -39 -29 -3 -39 -34 -1 -11 -14 -9 -10 -21 -1 -4 -0 -0
-0 -0 -5 -0 -1 -3 -1 -1 -0 -0 -0 -0 -0 -0 -0 -0 -21 -0 -0 -0 -0 -0 -0 -1 -2 -83 -92 -61 -54 -34 -31 -9 -0 -50 -0 -2 -15 -8 -0 -17 -2 -6 -0 -0
-0 -0 -0 -0 -8 -0 -1 -0 -0 -0 -0 -0 -14 -0 -0 -0 -0 -39 -0 -0 -0 -0 -0 -0 -0 -103 -109 -92 -70 -49 -17 -17 -1 -5 -1 -1 -1 -3 -7 -6 -10 -0 -2 -0
-0 -0 -0 -0 -0 -2 -3 -0 -0 -0 -0 -0 -0 -0 -0 -0 -0 -0 -0 -31 -70 -11 -0 -0 -13 -94 -96 -110 -112 -61 -27 -31 -8 -0 -0 -2 -0 -11 -10 -0 -0 -2 -0 -0
-0 -0 -0 -0 -0 -0 -1 -0 -0 -0 -0 -0 -0 -0 -0 -0 -0 -1 -0 -3 -0 -0 -0 -0 -73 -104 -107 -118 -106 -79 -64 -65 -18 -0 -1 -0 -16 -1 -6 -0 -2 -0 -0 -0
-0 -0 -2 -0 -0 -0 -0 -0 -0 -2 -11 -0 -0 -0 -77 -0 -0 -0 -23 -4 -0 -0 -0 -0 -0 -95 -116 -116 -95 -74 -85 -55 -27 -0 -28 -2 -1 -1 -14 -2 -0 -2 -0 -15
-0 -0 -0 -0 -0 -0 -0 -0 -0 -0 -0 -3 -8 -4 -0 -0 -36 -109 -13 -6 -0 -0 -52 -8 -0 -109 -100 -89 -104 -54 -72 -71 -38 -5 -3 -11 -0 -9 -1 -0 -0 -0 -6 -0
-0 -0 -0 -0 -0 -0 -0 -0 -0 -0 -0 -1 -1 -5 -2 -18 -81 -13 -20 -5 -11 -0 -0 -0 -0 -121 -109 -108 -61 -57 -39 -49 -41 -6 -8 -11 -5 -9 -10 -4 -0 -1 -0 -0
-0 -0 -0 -0 -0 -0 -0 -0 -0 -1 -0 -1 -0 -4 -7 -4 -9 -21 -40 -39 -29 -30 -23 -0 -108 -124 -122 -112 -100 -73 -43 -41 -27 -34 -32 -21 -17 -12 -0 -4 -0 -0 -0 -1
-0 -0 -0 -0 -0 -0 -0 -0 -0 -1 -0 -1 -0 -9 -3 -16 -2 -11 -17 -25 -21 -23 -6 -0 -0 -100 -102 -90 -53 -62 -68 -55 -28 -38 -26 -11 -9 -9 -0 -1 -0 -0 -0 -0
-0 -0 -0 -0 -0 -0 -0 -0 -0 -0 -0 -0 -33 -2 -3 -2 -6 -9 -0 -6 -16 -10 -3 -2 -2 -45 -81 -69 -57 -60 -18 -67 -35 -9 -14 -19 -0 -10 -2 -0 -0 -0 -0 -0
-0 -0 -0 -0 -0 -0 -0 -0 -0 -1 -0 -0 -0 -0 -17 -0 -0 -0 -0 -0 -1 -1 -2 -2 -0 -57 -57 -110 -32 -50 -42 -49 -33 -27 -25 -17 -1 -0 -2 -1 -0 -19 -0 -1
-0 -0 -0 -0 -0 -0 -0 -0 -0 -0 -0 -6 -0 -0 -0 -0 -0 -0 -0 -0 -0 -0 -0 -0 -4 -77 -42 -37 -76 -26 -51 -39 -51 -30 -23 -16 -0 -0 -0 -0 -0 -0 -10 -0
-0 -0 -0 -0 -0 -0 -0 -1 -0 -0 -0 -0 -0 -0 -0 -0 -0 -0 -0 -0 -0 -0 -0 -0 -0 -86 -37 -54 -51 -17 -40 -39 -16 -10 -18 -20 -5 -0 -1 -1 -0 -2 -0 -0
-0 -0 -0 -0 -0 -0 -0 -0 -0 -0 -0 -0 -0 -0 -0 -0 -0 -0 -0 -0 -0 -0 -0 -0 -0 -33 -2 -0 -0 -4 -14 -12 -5 -7 -7 -30 -2 -0 -0 -0 -0 -0 -0 -0
-0 -0 -0 -0 -0 -0 -0 -0 -0 -0 -0 -0 -0 -0 -0 -0 -0 -0 -0 -0 -0 -0 -0 -0 -0 -0 -8 -4 -0 -0 -0 -0 -8 -4 -1 -2 -6 -2 -0 -0 -0 -0 -0 -0
-0 -0 -0 -0 -0 -0 -0 -0 -0 -0 -0 -0 -0 -0 -0 -0 -0 -0 -0 -0 -0 -0 -0 -0 -0 -0 -0 -0 -3 -2 -29 -2 -0 -8 -0 -1 -0 -0 -0 -0 -32 -0 -0 -0
-0 -0 -0 -0 -0 -0 -0 -0 -0 -0 -0 -0 -0 -0 -0 -0 -0 -0 -0 -0 -0 -0 -0 -0 -0 -0 -0 -0 -0 -0 -0 -0 -0 -0 -0 -0 -0 -0 -0 -0 -0 -0 -0 -0
-0 -0 -0 -0 -0 -0 -0 -0 -0 -0 -0 -0 -0 -0 -0 -0 -0 -0 -0 -0 -0 -0 -0 -0 -0 -0 -0 -0 -0 -0 -0 -0 -2 -0 -0 -0 -0 -0 -0 -0 -1 -0 -0 -0
-0 -0 -0 -0 -0 -0 -0 -0 -0 -0 -0 -0 -0 -0 -0 -0 -0 -0 -0 -0 -0 -0 -0 -0 -0 -0 -0 -0 -0 -0 -0 -2 -0 -0 -0 -0 -8 -0 -0 -0 -0 -0 -0 -0
-0 -0 -0 -0 -0 -0 -0 -0 -0 -0 -0 -0 -0 -0 -0 -0 -0 -0 -0 -0 -0 -0 -0 -0 -0 -0 -0 -0 -0 -0 -0 -0 -1 -0 -0 -0 -0 -1 -1 -0 -0 -0 -0 -0
Wind_Speed
nan nan nan nan nan nan nan nan nan nan nan nan nan nan nan nan nan nan nan nan nan nan nan 49 45 47 46 44 43 42 40 35 39 nan 43 46 43 45 nan nan nan nan nan nan
nan nan nan nan nan nan nan nan nan nan nan nan nan nan nan nan nan nan nan nan nan nan nan nan 48 49 48 48 47 46 43 39 38 nan nan 40 44 nan nan nan nan nan nan nan
nan nan nan nan nan nan nan nan nan nan nan nan nan nan nan nan nan nan nan nan nan nan nan nan 54 50 52 50 50 51 46 43 44 nan nan nan nan nan nan nan nan nan nan nan
nan nan nan nan nan nan nan nan nan nan nan nan nan nan nan nan nan nan nan nan nan nan nan nan nan 56 55 54 55 54 54 50 48 nan nan nan 44 43 nan 47 nan nan nan nan
nan nan nan nan nan nan nan nan nan nan nan nan nan nan nan nan nan nan nan nan nan nan nan nan nan 58 58 61 61 59 nan 55 nan nan nan nan nan nan nan nan nan nan nan nan
nan nan nan nan nan nan nan nan nan nan nan nan nan nan nan nan nan nan nan nan nan nan nan nan nan nan 59 61 62 60 nan nan 56 56 nan nan nan nan nan nan nan nan nan nan
nan nan nan nan nan nan nan nan nan nan nan nan nan nan nan nan nan nan nan nan nan nan nan nan nan 55 56 61 60 60 nan 60 nan 56 nan nan nan nan nan nan nan nan nan nan
nan nan nan nan nan nan nan nan nan nan nan nan nan nan nan nan nan nan nan nan nan nan nan nan nan 42 45 51 54 56 59 nan 58 nan nan nan nan nan nan nan nan nan nan nan
nan nan nan nan nan nan nan nan nan nan nan nan nan nan nan nan nan nan nan nan nan nan nan nan nan 37 41 47 49 55 53 nan nan nan nan nan nan nan nan nan nan nan nan nan
nan nan nan nan nan nan nan nan nan nan nan nan nan nan nan nan nan nan nan nan nan nan nan nan nan 34 37 39 45 51 51 nan nan nan nan nan nan nan nan nan nan nan nan nan
nan nan nan nan nan nan nan nan nan nan nan nan nan nan nan nan nan nan nan nan nan nan nan nan nan 35 37 41 40 43 42 nan nan nan 49 nan nan nan nan nan nan nan nan nan
nan nan nan nan nan nan nan nan nan nan nan nan nan nan nan nan nan nan nan nan nan nan nan nan nan 31 38 37 37 34 37 38 nan 43 nan nan nan nan nan nan nan nan nan nan
nan nan nan nan nan nan nan nan nan nan nan nan nan nan nan nan nan nan nan nan nan nan nan nan nan 26 27 29 33 34 33 36 nan 43 nan nan nan nan nan nan nan nan nan nan
nan nan nan nan nan nan nan nan nan nan nan nan nan nan 47 nan nan nan nan nan nan nan nan nan nan 33 32 26 31 34 34 40 40 nan nan nan nan nan nan nan nan nan nan nan
nan nan nan nan nan nan nan nan nan nan nan nan nan nan 59 nan nan nan nan nan nan nan nan nan nan nan 34 28 32 34 36 nan 37 nan nan nan nan nan nan nan nan nan nan nan
nan nan nan nan nan nan nan nan nan nan nan nan nan nan nan nan nan nan nan nan nan nan nan nan nan nan nan 31 28 34 32 nan nan nan nan nan nan nan nan nan nan nan nan nan
nan nan nan nan nan nan nan nan nan nan nan nan nan nan nan nan nan nan nan nan nan nan nan nan nan nan nan nan 27 23 31 38 nan nan nan nan nan nan nan nan nan nan nan nan
nan nan nan nan nan nan nan nan nan nan nan nan nan nan nan nan nan nan nan nan nan nan nan nan nan nan nan nan nan 26 nan nan nan nan nan nan nan nan nan nan nan nan nan nan
nan nan nan nan nan nan nan nan nan nan nan nan nan nan nan nan nan nan nan nan nan nan nan nan nan nan nan nan nan 33 32 nan nan nan nan nan nan nan nan nan nan nan nan nan
nan nan nan nan nan nan nan nan nan nan nan nan nan nan nan nan nan nan nan nan nan nan nan nan nan nan 34 40 41 28 nan 32 nan nan nan nan nan nan nan nan nan nan nan nan
nan nan nan nan nan nan nan nan nan nan nan nan nan nan nan nan nan nan nan nan nan nan nan nan nan nan nan nan 40 nan nan nan nan nan nan nan nan nan nan nan nan nan nan nan
nan nan nan nan nan nan nan nan nan nan nan nan nan nan nan nan nan nan nan nan nan nan nan nan nan nan nan nan nan nan nan nan nan nan nan nan nan nan nan nan nan nan nan nan
nan nan nan nan nan nan nan nan nan nan nan nan nan nan nan nan nan nan nan nan nan nan nan nan nan nan nan nan nan nan nan nan nan nan nan nan nan nan nan nan nan nan nan nan
nan nan nan nan nan nan nan nan nan nan nan nan nan nan nan nan nan nan nan nan nan nan nan nan nan nan nan nan nan nan nan nan nan nan nan nan nan nan nan nan nan nan nan nan
nan nan nan nan nan nan nan nan nan nan nan nan nan nan nan nan nan nan nan nan nan nan nan nan nan nan nan nan nan nan nan nan nan nan nan nan nan nan nan nan nan nan nan nan
nan nan nan nan nan nan nan nan nan nan nan nan nan nan nan nan nan nan nan nan nan nan nan nan nan nan nan nan nan nan nan nan nan nan nan nan nan nan nan nan nan nan nan nan
Wind_Direction
nan nan nan nan nan nan nan nan nan nan nan nan nan nan nan nan nan nan nan nan nan nan nan 247 249 253 252 254 260 262 265 268 262 nan 252 251 248 243 nan nan nan nan nan nan
nan nan nan nan nan nan nan nan nan nan nan nan nan nan nan nan nan nan nan nan nan nan nan nan 245 247 251 256 258 260 263 266 259 nan nan 251 251 nan nan nan nan nan nan nan
nan nan nan nan nan nan nan nan nan nan nan nan nan nan nan nan nan nan nan nan nan nan nan nan 246 247 247 250 257 257 258 258 260 nan nan nan nan nan nan nan nan nan nan nan
nan nan nan nan nan nan nan nan nan nan nan nan nan nan nan nan nan nan nan nan nan nan nan nan nan 240 244 246 249 252 255 258 255 nan nan nan 254 255 nan 251 nan nan nan nan
nan nan nan nan nan nan nan nan nan nan nan nan nan nan nan nan nan nan nan nan nan nan nan nan nan 240 237 241 245 247 nan 255 nan nan nan nan nan nan nan nan nan nan nan nan
nan nan nan nan nan nan nan nan nan nan nan nan nan nan nan nan nan nan nan nan nan nan nan nan nan nan 239 239 243 246 nan nan 254 257 nan nan nan nan nan nan nan nan nan nan
nan nan nan nan nan nan nan nan nan nan nan nan nan nan nan nan nan nan nan nan nan nan nan nan nan 236 234 239 241 244 nan 248 nan 254 nan nan nan nan nan nan nan nan nan nan
nan nan nan nan nan nan nan nan nan nan nan nan nan nan nan nan nan nan nan nan nan nan nan nan nan 247 241 245 241 243 247 nan 249 nan nan nan nan nan nan nan nan nan nan nan
nan nan nan nan nan nan nan nan nan nan nan nan nan nan nan nan nan nan nan nan nan nan nan nan nan 239 239 239 242 245 243 nan nan nan nan nan nan nan nan nan nan nan nan nan
nan nan nan nan nan nan nan nan nan nan nan nan nan nan nan nan nan nan nan nan nan nan nan nan nan 234 235 238 239 242 243 nan nan nan nan nan nan nan nan nan nan nan nan nan
nan nan nan nan nan nan nan nan nan nan nan nan nan nan nan nan nan nan nan nan nan nan nan nan nan 225 230 234 235 239 240 nan nan nan 244 nan nan nan nan nan nan nan nan nan
nan nan nan nan nan nan nan nan nan nan nan nan nan nan nan nan nan nan nan nan nan nan nan nan nan 224 228 233 239 240 235 240 nan 243 nan nan nan nan nan nan nan nan nan nan
nan nan nan nan nan nan nan nan nan nan nan nan nan nan nan nan nan nan nan nan nan nan nan nan nan 230 236 236 231 230 231 235 nan 239 nan nan nan nan nan nan nan nan nan nan
nan nan nan nan nan nan nan nan nan nan nan nan nan nan 174 nan nan nan nan nan nan nan nan nan nan 206 216 226 234 229 222 227 232 nan nan nan nan nan nan nan nan nan nan nan
nan nan nan nan nan nan nan nan nan nan nan nan nan nan 179 nan nan nan nan nan nan nan nan nan nan nan 201 217 219 227 220 nan 231 nan nan nan nan nan nan nan nan nan nan nan
nan nan nan nan nan nan nan nan nan nan nan nan nan nan nan nan nan nan nan nan nan nan nan nan nan nan nan 204 222 228 224 nan nan nan nan nan nan nan nan nan nan nan nan nan
nan nan nan nan nan nan nan nan nan nan nan nan nan nan nan nan nan nan nan nan nan nan nan nan nan nan nan nan 211 220 227 229 nan nan nan nan nan nan nan nan nan nan nan nan
nan nan nan nan nan nan nan nan nan nan nan nan nan nan nan nan nan nan nan nan nan nan nan nan nan nan nan nan nan 215 nan nan nan nan nan nan nan nan nan nan nan nan nan nan
nan nan nan nan nan nan nan nan nan nan nan nan nan nan nan nan nan nan nan nan nan nan nan nan nan nan nan nan nan 216 223 nan nan nan nan nan nan nan nan nan nan nan nan nan
nan nan nan nan nan nan nan nan nan nan nan nan nan nan nan nan nan nan nan nan nan nan nan nan nan nan 181 183 185 214 nan 230 nan nan nan nan nan nan nan nan nan nan nan nan
nan nan nan nan nan nan nan nan nan nan nan nan nan nan nan nan nan nan nan nan nan nan nan nan nan nan nan nan 188 nan nan nan nan nan nan nan nan nan nan nan nan nan nan nan
nan nan nan nan nan nan nan nan nan nan nan nan nan nan nan nan nan nan nan nan nan nan nan nan nan nan nan nan nan nan nan nan nan nan nan nan nan nan nan nan nan nan nan nan
nan nan nan nan nan nan nan nan nan nan nan nan nan nan nan nan nan nan nan nan nan nan nan nan nan nan nan nan nan nan nan nan nan nan nan nan nan nan nan nan nan nan nan nan
nan nan nan nan nan nan nan nan nan nan nan nan nan nan nan nan nan nan nan nan nan nan nan nan nan nan nan nan nan nan nan nan nan nan nan nan nan nan nan nan nan nan nan nan
nan nan nan nan nan nan nan nan nan nan nan nan nan nan nan nan nan nan nan nan nan nan nan nan nan nan nan nan nan nan nan nan nan nan nan nan nan nan nan nan nan nan nan nan
nan nan nan nan nan nan nan nan nan nan nan nan nan nan nan nan nan nan nan nan nan nan nan nan nan nan nan nan nan nan nan nan nan nan nan nan nan nan nan nan nan nan nan nan